Location: Rounton
(54.4000°N, 1.3500°W)
Time: 14:38:17
(UTC+00:00)

Transit 4A - Pass Details

Date: 30 November 2021
Orbit: 864 x 981 km, 66.8° (Epoch: 20 January)

Event Time Altitude Azimuth Distance (km) Brightness Sun altitude
Rises 19:30:40 0° 180° (S) 3,454 - -31.5°
Reaches altitude 10° 19:33:24 10° 170° (S) 2,533 - -31.9°
Maximum altitude 19:38:21 29° 112° (ESE) 1,583 - -32.6°
Drops below altitude 10° 19:43:25 10° 54° (NE) 2,609 - -33.3°
Sets 19:46:16 0° 44° (NE) 3,576 - -33.7°
